User: anonymous   Login
Location: Unspecified
(0.0000°N, 0.0000°E)
Time: 00:17:25
(UTC+00:00)
Language:

Cosmos 2058 - Orbit

View from above orbital plane
View from above orbital plane
View from above satellite
View from above satellite

Ground track
Ground track

The orbit data is extracted from the following two-line orbital elements,

1 20465U 90010A   19288.22814626  .00000245  00000-0  18526-4 0  9993
2 20465  82.4888 150.2763 0014426 315.1904  44.8153 14.97916660612576
Epoch (UTC): 15 October 2019 05:28:31
Eccentricity: 0.0014426
inclination: 82.4888°
perigee height: 563 km
apogee height: 583 km
right ascension of ascending node: 150.2763°
argument of perigee: 315.1904°
revolutions per day: 14.97916660
mean anomaly at epoch: 44.8153°
orbit number at epoch: 61257

The dashed part of the orbit path shows where the satellite is in the earth's shadow,  

DLR